[[{"header":{"parameterUnit":"m.s-1","parameterCategory":1,"la1":30.2991,"la2":30.254,"lo1":-89.0895,"lo2":-89.0444,"dy":0.0017,"dx":0.0017,"nx":28,"ny":28,"refTime":"2025-06-06T21:00:00:Z","depth":0,"parameterNumber":2,"parameterNumberName":"U-component_of_WINDS"},"data":[0,0,0,0,0,0,0,0,0,0,0,0,0,0,0,0,0,0,0,0,0,0,0,0,0,0,0,0,0,0,0,0,0,0,0,0,0,0,0,0,0,0,0,0,0,0,0,0,0,0,0,0,0,0,0,0,0,0,4.2273,4.2276,0,4.2489,4.2491,4.2493,4.2491,4.2488,4.2485,4.2482,4.2706,4.2714,4.2723,0,0,0,0,0,0,0,0,0,0,0,0,0,4.1861,4.1869,4.2273,4.2276,4.2279,4.2488,4.2491,4.2494,4.2491,4.2488,4.2484,4.2481,4.2703,4.2713,4.2723,0,0,0,0,0,0,0,0,0,0,0,0,0,4.2055,4.1871,4.2273,4.2302,4.2307,4.2488,4.2491,4.2495,4.2492,4.2488,4.2483,4.2479,4.27,4.2712,4.2725,4.2891,0,0,4.2764,4.277,0,0,0,0,0,0,0,0,4.2044,4.207,4.2295,4.2301,4.2306,4.2458,4.2428,4.2628,4.2493,4.2422,4.2482,4.2477,4.2627,4.2646,4.2696,4.2902,4.2911,4.2766,4.2773,4.2779,4.2783,0,0,0,0,0,0,0,4.203,4.206,4.2358,4.2299,4.2305,4.2305,4.2328,4.2466,4.2546,4.2428,4.2428,4.2453,4.2629,4.2683,4.2701,4.2914,4.2765,4.2777,4.2785,4.279,4.3264,4.3269,0,0,0,0,0,0,4.201,4.2049,4.2352,4.2365,4.2162,4.2316,4.2342,4.2414,4.2545,4.256,4.2457,4.2452,4.2663,4.2686,4.2709,4.2909,4.2779,4.2791,4.2798,4.326,4.3265,4.3271,0,0,0,0,0,0,4.2001,4.2037,4.2343,4.2207,4.2246,4.2328,4.2409,4.242,4.2474,4.2567,4.2581,4.2497,4.2661,4.2691,4.2845,4.2917,4.2797,4.2809,4.3254,4.3261,4.3268,4.3313,0,0,0,0,0,0,4.199,4.2034,4.2098,4.2209,4.2253,4.2475,4.2414,4.2428,4.2496,4.2493,4.2608,4.2623,4.266,4.2826,4.2858,4.2933,4.2819,4.3248,4.3257,4.3266,4.3306,4.3321,4.3335,0,0,0,0,0,4.1975,4.2104,4.2101,4.2138,4.2335,4.2479,4.2505,4.2543,4.2502,4.2567,4.2626,4.2619,4.2904,4.2841,4.2878,4.2958,4.3243,4.3255,4.3265,4.3299,4.3318,4.3334,0,0,0,0,0,0,4.2001,4.2119,4.2117,4.2285,4.2372,4.2479,4.2561,4.2563,4.2664,4.2656,4.2701,4.2727,4.288,4.2935,4.2863,4.3124,4.3069,4.3087,4.3082,4.3101,4.3115,4.3098,4.283,0,0,0,0,0,4.2026,4.2133,4.223,4.2369,4.2413,4.2479,4.2544,4.2566,4.2658,4.2695,4.2765,4.2856,4.2965,4.3037,4.3143,4.3314,4.3338,4.3387,4.3401,4.3413,4.3428,4.352,4.3542,4.3307,4.3306,4.3306,0,0,4.2079,4.2157,4.2222,4.2376,4.2446,4.2555,4.2511,4.2629,4.2711,4.2714,4.2862,4.2917,4.3021,4.3183,4.3259,4.3234,4.3498,4.3427,4.3435,4.3444,4.3533,4.3555,4.3575,4.3314,4.3313,4.3311,0,0,4.2231,4.2302,4.2423,4.2494,4.2599,4.2643,4.2672,4.2778,4.2814,4.2964,4.2967,4.3065,4.3254,4.3327,4.3388,4.3566,4.3563,4.36,4.3674,4.3763,4.3782,4.3798,4.3859,4.3881,4.3615,4.3615,4.3615,0,4.2284,4.2449,4.2486,4.2604,4.2671,4.2678,4.2801,4.2868,4.3003,4.3049,4.3019,4.3254,4.3325,4.3503,4.3545,4.3596,4.363,4.3586,4.3776,4.3793,4.3809,4.3868,4.3891,4.3618,4.3618,4.3618,4.3617,0,4.2507,4.2621,4.2707,4.2835,4.2913,4.3033,4.3088,4.3162,4.3177,4.3223,4.3375,4.346,4.3581,4.3626,4.3643,4.3807,4.3787,4.3766,4.3711,4.3834,4.389,4.3913,4.3623,4.3622,4.3621,4.362,0,0,4.2682,4.2828,4.2858,4.2915,4.3031,4.312,4.3241,4.3358,4.342,4.3513,4.3614,4.3772,4.3752,4.3822,4.3848,4.3926,4.4058,4.3895,4.3898,4.392,4.424,4.4253,4.4279,4.4057,4.4062,4.4065,4.4231,0,4.2844,4.3056,4.3093,4.3278,4.3383,4.3389,4.3494,4.3576,4.3622,4.3718,4.377,4.388,4.3848,4.3889,4.3967,4.4025,4.4122,4.4014,4.4151,4.4155,4.4122,4.4308,4.4323,4.4475,4.4253,4.4257,4.4259,0,4.3062,4.3158,4.3353,4.3453,4.3498,4.3591,4.37,4.3793,4.3886,4.3914,4.3991,4.4006,4.413,4.4071,4.4242,4.4167,4.4226,4.4262,4.4269,4.4282,4.4213,4.4323,4.4525,4.4546,4.4295,4.4292,4.4289,0,4.3166,4.3345,4.3484,4.3533,4.3654,4.3718,4.3771,4.386,4.3928,4.4024,4.4068,4.4179,4.4238,4.4323,4.4368,4.4321,4.4535,4.448,4.4561,4.4559,4.4604,4.46,4.4815,4.4646,4.4645,4.4645,4.4644,0,4.3343,4.3461,4.3532,4.3617,4.375,4.3791,4.3921,4.3973,4.4052,4.4147,4.4161,4.425,4.4304,4.4401,4.4437,4.4572,4.46,4.4625,4.4633,4.4623,4.4619,4.466,4.4649,4.4651,4.465,4.4648,4.4647,0,4.3481,4.3533,4.3685,4.3785,4.3813,4.3906,4.3992,4.4075,4.4121,4.4241,4.4272,4.4344,4.4459,4.4511,4.4654,4.4678,4.483,4.4832,4.4798,4.48,4.4877,4.4868,4.5124,4.5158,4.4968,4.497,4.4972,0,4.3589,4.368,4.3789,4.3853,4.3907,4.4011,4.4079,4.4123,4.4194,4.4305,4.4374,4.4489,4.4583,4.4766,4.4831,4.494,4.4943,4.5025,4.4959,4.4945,4.4941,4.4933,4.4941,4.5036,4.5038,4.5039,4.5041,0,4.3774,4.3794,4.3892,4.3998,4.4078,4.4165,4.4249,4.4301,4.4358,4.4437,4.4553,4.4626,4.477,4.4883,4.4995,4.5051,4.5055,4.5061,4.5085,4.5074,4.5049,4.506,4.4828,4.5054,4.5053,4.5052,4.5051,4.5051,4.3898,4.3978,4.4066,4.4174,4.4242,4.432,4.4401,4.4456,4.4554,4.4673,4.4694,4.4817,4.4906,4.5057,4.5116,4.5213,4.5194,4.5229,4.5238,4.5245,4.5248,4.5035,4.5234,4.5234,4.5234,4.5234,4.5233,0,4.4081,4.4138,4.4236,4.4353,4.4437,4.4433,4.4525,4.4596,4.4704,4.4786,4.4877,4.501,4.5119,4.5193,4.5303,4.5366,4.5371,4.5394,4.5388,4.54,4.5261,4.5227,4.5388,4.5388,4.5388,4.5388,4.5388,4.5388,4.4186,4.432,4.4351,4.4518,4.4574,4.4693,4.4746,4.4818,4.4884,4.503,4.512,4.5167,4.5246,4.5361,4.5461,4.548,4.5519,4.5542,4.5559,4.5427,4.5411,4.5395,4.5364,4.5551,4.5551,4.5691,4.5692,4.5693]},{"header":{"parameterUnit":"m.s-1","parameterCategory":1,"la1":30.2991,"la2":30.254,"lo1":-89.0895,"lo2":-89.0444,"dy":0.0017,"dx":0.0017,"nx":28,"ny":28,"refTime":"2025-06-06T21:00:00:Z","depth":0,"parameterNumber":3,"parameterNumberName":"V-component_of_WINDS"},"data":[0,0,0,0,0,0,0,0,0,0,0,0,0,0,0,0,0,0,0,0,0,0,0,0,0,0,0,0,0,0,0,0,0,0,0,0,0,0,0,0,0,0,0,0,0,0,0,0,0,0,0,0,0,0,0,0,0,0,1.0792,1.0792,0,1.0822,1.0823,1.0823,1.0799,1.0798,1.0797,1.0796,1.0829,1.0831,1.0832,0,0,0,0,0,0,0,0,0,0,0,0,0,1.0714,1.0716,1.0792,1.0792,1.0793,1.0822,1.0823,1.0823,1.08,1.0798,1.0797,1.0796,1.0828,1.083,1.0833,0,0,0,0,0,0,0,0,0,0,0,0,0,1.0746,1.0716,1.0792,1.0784,1.0784,1.0822,1.0823,1.0823,1.08,1.0798,1.0797,1.0795,1.0828,1.083,1.0833,1.088,0,0,1.0841,1.0842,0,0,0,0,0,0,0,0,1.0745,1.0749,1.0785,1.0785,1.0785,1.0805,1.0807,1.0842,1.08,1.0794,1.0796,1.0795,1.0822,1.0825,1.0834,1.0882,1.0883,1.0841,1.0843,1.0844,1.0845,0,0,0,0,0,0,0,1.0742,1.0748,1.0804,1.0786,1.0785,1.078,1.0783,1.0814,1.0816,1.0794,1.0793,1.0797,1.0822,1.0832,1.0835,1.0884,1.0841,1.0844,1.0845,1.0846,1.097,1.0971,0,0,0,0,0,0,1.0741,1.0746,1.0803,1.0805,1.076,1.0782,1.0786,1.08,1.0816,1.0817,1.0798,1.0795,1.0828,1.0832,1.0836,1.0892,1.0844,1.0847,1.0848,1.0968,1.097,1.0972,0,0,0,0,0,0,1.0739,1.0746,1.0802,1.0775,1.0782,1.0785,1.0802,1.0802,1.0812,1.0819,1.0819,1.0807,1.0827,1.0832,1.0869,1.0893,1.0848,1.085,1.0966,1.0969,1.0971,1.1005,0,0,0,0,0,0,1.0737,1.0746,1.0764,1.0776,1.0783,1.0834,1.0803,1.0803,1.0816,1.0813,1.0828,1.0829,1.0826,1.0865,1.0872,1.0896,1.0853,1.0964,1.0967,1.097,1.1002,1.1008,1.1014,0,0,0,0,0,1.0734,1.0772,1.0765,1.0772,1.0806,1.0836,1.084,1.0836,1.0818,1.0836,1.0841,1.0828,1.0889,1.0869,1.0876,1.0902,1.0963,1.0966,1.097,1.0999,1.1007,1.1013,0,0,0,0,0,0,1.0764,1.0774,1.0766,1.0809,1.0821,1.0832,1.0855,1.0845,1.0863,1.086,1.0854,1.0858,1.0896,1.0902,1.088,1.0948,1.0923,1.0928,1.0942,1.095,1.0956,1.0954,1.0855,0,0,0,0,0,1.0776,1.0799,1.0806,1.0843,1.085,1.0851,1.0864,1.086,1.0873,1.0878,1.0885,1.0899,1.0921,1.0936,1.0956,1.1002,1.1004,1.1023,1.1029,1.1034,1.1039,1.1062,1.1071,1.0984,1.0984,1.0984,0,0,1.08,1.0808,1.0823,1.0849,1.0859,1.0883,1.0856,1.0883,1.0901,1.0883,1.0918,1.0923,1.0938,1.0979,1.0997,1.0985,1.1063,1.1038,1.1042,1.1045,1.1067,1.1075,1.1083,1.0987,1.0986,1.0986,0,0,1.0856,1.0865,1.0896,1.0906,1.092,1.092,1.0928,1.0939,1.0942,1.0977,1.0963,1.0984,1.1023,1.1033,1.1044,1.1103,1.1092,1.1109,1.1142,1.1165,1.1172,1.1178,1.1199,1.1206,1.1114,1.1114,1.1114,0,1.0885,1.092,1.0914,1.0942,1.0954,1.0937,1.0969,1.0979,1.0999,1.1008,1.0994,1.104,1.1049,1.1092,1.1106,1.1116,1.1124,1.1108,1.1171,1.1177,1.1183,1.1202,1.121,1.1116,1.1116,1.1116,1.1116,0,1.0955,1.0979,1.1003,1.1023,1.1037,1.1067,1.1065,1.108,1.1074,1.1076,1.1111,1.112,1.1142,1.1152,1.1147,1.1194,1.1186,1.1172,1.1147,1.1193,1.1212,1.1219,1.1119,1.1119,1.1118,1.1117,0,0,1.1032,1.1046,1.1055,1.1063,1.1077,1.1096,1.1125,1.1146,1.1159,1.1173,1.1197,1.1229,1.1215,1.1227,1.1222,1.1243,1.1288,1.1226,1.1226,1.1237,1.1341,1.1352,1.1361,1.1281,1.1282,1.1283,1.134,0,1.1089,1.1139,1.1133,1.118,1.1203,1.1187,1.1211,1.1223,1.1224,1.1244,1.1246,1.1269,1.1249,1.1256,1.1275,1.1279,1.1309,1.1274,1.1303,1.1304,1.13,1.1371,1.1383,1.1436,1.1347,1.1348,1.1349,0,1.1163,1.1179,1.1228,1.1237,1.1247,1.1269,1.1287,1.1306,1.1318,1.1317,1.133,1.1322,1.135,1.1324,1.1363,1.1339,1.135,1.1354,1.1356,1.1359,1.133,1.1376,1.1452,1.146,1.136,1.1359,1.1359,0,1.1214,1.1248,1.1282,1.1289,1.1301,1.1317,1.1323,1.1333,1.1345,1.1361,1.1369,1.1388,1.1399,1.1413,1.141,1.1392,1.145,1.1424,1.1451,1.1451,1.1465,1.1464,1.1544,1.1471,1.1471,1.1471,1.1471,0,1.1279,1.131,1.1305,1.1326,1.136,1.1353,1.1386,1.139,1.1399,1.142,1.1407,1.1427,1.1421,1.1441,1.1439,1.1471,1.1476,1.1477,1.1476,1.1478,1.1478,1.1486,1.1483,1.1473,1.1472,1.1472,1.1472,0,1.1343,1.1341,1.1376,1.1384,1.1386,1.1411,1.1418,1.1437,1.1437,1.1464,1.147,1.147,1.1493,1.1491,1.1516,1.1515,1.1555,1.1549,1.1551,1.155,1.1577,1.1574,1.1666,1.1677,1.1596,1.1597,1.1598,0,1.1385,1.1408,1.1417,1.143,1.1437,1.1458,1.147,1.1464,1.1477,1.1492,1.1509,1.153,1.1547,1.1584,1.1586,1.1606,1.1601,1.1631,1.1604,1.1605,1.1601,1.16,1.1602,1.1637,1.1638,1.1639,1.1639,0,1.1459,1.1456,1.1474,1.1492,1.1507,1.152,1.1533,1.1544,1.1539,1.1555,1.1577,1.159,1.1615,1.1636,1.1654,1.166,1.1649,1.1648,1.1655,1.1658,1.1658,1.1658,1.1566,1.1646,1.1645,1.1645,1.1644,1.1644,1.1513,1.1532,1.1542,1.1562,1.1571,1.1582,1.1601,1.1603,1.1621,1.1641,1.1636,1.1661,1.1671,1.1694,1.1701,1.1721,1.171,1.1721,1.1723,1.1726,1.1729,1.1654,1.1724,1.1724,1.1724,1.1724,1.1724,0,1.1586,1.1591,1.161,1.1627,1.1643,1.163,1.1643,1.1657,1.168,1.169,1.1706,1.1731,1.1751,1.1755,1.1774,1.1789,1.1784,1.1794,1.1793,1.1795,1.1738,1.173,1.1798,1.1798,1.1798,1.1798,1.1798,1.1798,1.1626,1.1659,1.1657,1.1693,1.1698,1.1722,1.173,1.1741,1.1749,1.1778,1.1794,1.1796,1.1803,1.1823,1.184,1.1841,1.1848,1.186,1.1859,1.1806,1.1799,1.1792,1.1784,1.1862,1.1862,1.1914,1.1914,1.1915]}]]